• In Uzbekistan
  • List of Countries
  • For 7 days
  • Water Temperature
  • Satellite Maps
  • Weather Map
  • Weather Widgets
  • user-avatar
    Login

    Hourly Weather Krasnyy Mys

    Today, 16 July, Monday

    Time Temperature Precipitation Wind Pressure Humidity
    00:00 +21°C° 0.9 mm 2 mps 740 mmHg 86%
    01:00 +21°C° 0.3 mm 2 mps 740 mmHg 86%
    02:00 +20°C° 0.3 mm 2 mps 740 mmHg 87%
    03:00 +20°C° 0 mm 2 mps 740 mmHg 89%
    04:00 +21°C° 0.3 mm 3 mps 740 mmHg 89%
    05:00 +21°C° 0.3 mm 3 mps 740 mmHg 88%
    06:00 +21°C° 0.3 mm 3 mps 740 mmHg 88%
    07:00 +24°C° 0.7 mm 3 mps 740 mmHg 83%
    08:00 +25°C° 0.7 mm 4 mps 740 mmHg 78%
    09:00 +27°C° 0.7 mm 4 mps 740 mmHg 74%
    10:00 +28°C° 1.2 mm 4 mps 740 mmHg 69%
    11:00 +29°C° 1.2 mm 5 mps 739 mmHg 65%
    12:00 +30°C° 1.2 mm 5 mps 739 mmHg 61%
    13:00 +30°C° 1.2 mm 5 mps 739 mmHg 61%
    14:00 +30°C° 1.2 mm 5 mps 739 mmHg 62%
    15:00 +30°C° 1.2 mm 4 mps 739 mmHg 63%
    16:00 +29°C° 0.9 mm 4 mps 738 mmHg 67%
    17:00 +29°C° 0.9 mm 3 mps 738 mmHg 70%
    18:00 +28°C° 0.9 mm 3 mps 738 mmHg 74%
    19:00 +27°C° 0.4 mm 3 mps 738 mmHg 77%
    20:00 +25°C° 0.4 mm 3 mps 738 mmHg 81%
    21:00 +24°C° 0.4 mm 3 mps 738 mmHg 84%
    22:00 +22°C° 0.4 mm 3 mps 738 mmHg 87%
    23:00 +22°C° 0.4 mm 3 mps 738 mmHg 89%

    Tomorrow, 17 July, Tuesday

    Time Temperature Precipitation Wind Pressure Humidity
    00:00 +21°C° 0.4 mm 3 mps 737 mmHg 91%
    01:00 +21°C° 0.2 mm 3 mps 737 mmHg 92%
    02:00 +20°C° 0.2 mm 3 mps 737 mmHg 92%
    03:00 +20°C° 0.2 mm 3 mps 737 mmHg 93%
    04:00 +20°C° 0.4 mm 4 mps 737 mmHg 93%
    05:00 +20°C° 0.4 mm 4 mps 737 mmHg 94%
    06:00 +20°C° 0.4 mm 4 mps 736 mmHg 94%
    07:00 +20°C° 0.5 mm 5 mps 736 mmHg 93%
    08:00 +21°C° 0.5 mm 5 mps 736 mmHg 92%
    09:00 +21°C° 0.5 mm 5 mps 736 mmHg 91%
    10:00 +21°C° 0.3 mm 6 mps 736 mmHg 88%
    11:00 +22°C° 0.3 mm 6 mps 736 mmHg 84%
    12:00 +23°C° 0.3 mm 7 mps 735 mmHg 81%
    13:00 +23°C° 0.6 mm 6 mps 735 mmHg 84%
    14:00 +22°C° 0.6 mm 6 mps 735 mmHg 86%
    15:00 +22°C° 0.6 mm 6 mps 734 mmHg 89%
    16:00 +22°C° 0.8 mm 5 mps 734 mmHg 89%
    17:00 +22°C° 0.8 mm 5 mps 734 mmHg 90%
    18:00 +22°C° 0.8 mm 5 mps 734 mmHg 90%
    19:00 +21°C° 0.6 mm 5 mps 734 mmHg 92%
    20:00 +21°C° 0.6 mm 4 mps 734 mmHg 93%
    21:00 +20°C° 0.6 mm 4 mps 733 mmHg 95%
    22:00 +20°C° 0.2 mm 4 mps 733 mmHg 96%
    23:00 +19°C° 0.2 mm 3 mps 733 mmHg 96%

    Day after tomorrow, 18 July, Wednesday

    Time Temperature Precipitation Wind Pressure Humidity
    00:00 +19°C° 0.2 mm 3 mps 733 mmHg 96%
    01:00 +18°C° 0 mm 3 mps 733 mmHg 97%
    02:00 +18°C° 0 mm 3 mps 732 mmHg 97%
    03:00 +18°C° 0 mm 2 mps 732 mmHg 97%
    04:00 +18°C° 0.2 mm 2 mps 732 mmHg 97%
    05:00 +18°C° 0.2 mm 3 mps 732 mmHg 97%
    06:00 +18°C° 0.2 mm 3 mps 732 mmHg 96%
    07:00 +19°C° 0.3 mm 3 mps 733 mmHg 95%
    08:00 +19°C° 0.3 mm 3 mps 733 mmHg 94%
    09:00 +20°C° 0.3 mm 3 mps 733 mmHg 93%
    10:00 +20°C° 0.7 mm 4 mps 733 mmHg 91%
    11:00 +21°C° 0.7 mm 5 mps 734 mmHg 89%
    12:00 +21°C° 0.7 mm 6 mps 734 mmHg 86%
    13:00 +21°C° 1.1 mm 6 mps 734 mmHg 87%
    14:00 +21°C° 1.1 mm 7 mps 734 mmHg 87%
    15:00 +21°C° 1.1 mm 7 mps 735 mmHg 87%
    16:00 +21°C° 0.5 mm 7 mps 735 mmHg 87%
    17:00 +21°C° 0.5 mm 6 mps 735 mmHg 87%
    18:00 +20°C° 0.5 mm 6 mps 735 mmHg 87%
    19:00 +20°C° 0.5 mm 6 mps 735 mmHg 88%
    20:00 +20°C° 0.5 mm 5 mps 736 mmHg 89%
    21:00 +19°C° 0.5 mm 5 mps 736 mmHg 90%
    22:00 +19°C° 0.6 mm 5 mps 736 mmHg 90%
    23:00 +19°C° 0.6 mm 5 mps 736 mmHg 91%

    19 July, Thursday

    Time Temperature Precipitation Wind Pressure Humidity
    00:00 +19°C° 0.6 mm 5 mps 736 mmHg 91%
    01:00 +19°C° 0.2 mm 5 mps 736 mmHg 92%
    02:00 +19°C° 0.2 mm 5 mps 736 mmHg 93%
    03:00 +19°C° 0.2 mm 5 mps 736 mmHg 94%
    04:00 +19°C° 0.4 mm 5 mps 736 mmHg 94%
    05:00 +19°C° 0.4 mm 5 mps 736 mmHg 94%
    06:00 +19°C° 0.4 mm 5 mps 737 mmHg 94%
    07:00 +19°C° 0.6 mm 5 mps 737 mmHg 94%
    08:00 +20°C° 0.6 mm 5 mps 737 mmHg 93%
    09:00 +20°C° 0.6 mm 5 mps 737 mmHg 92%
    10:00 +21°C° 0.3 mm 5 mps 738 mmHg 89%
    11:00 +22°C° 0.3 mm 5 mps 738 mmHg 85%
    12:00 +24°C° 0.3 mm 6 mps 738 mmHg 81%
    13:00 +24°C° 0.9 mm 6 mps 738 mmHg 78%
    14:00 +26°C° 0.9 mm 6 mps 739 mmHg 76%
    15:00 +27°C° 0.9 mm 6 mps 739 mmHg 73%
    16:00 +27°C° 0.5 mm 5 mps 739 mmHg 75%
    17:00 +27°C° 0.5 mm 4 mps 739 mmHg 77%
    18:00 +26°C° 0.5 mm 3 mps 739 mmHg 79%
    19:00 +25°C° 0.1 mm 3 mps 740 mmHg 81%
    20:00 +24°C° 0.1 mm 3 mps 740 mmHg 84%
    21:00 +22°C° 0.1 mm 3 mps 740 mmHg 86%
    22:00 +21°C° 0.4 mm 3 mps 740 mmHg 88%
    23:00 +21°C° 0.4 mm 3 mps 740 mmHg 90%

    20 July, Friday

    Time Temperature Precipitation Wind Pressure Humidity
    00:00 +20°C° 0.4 mm 3 mps 740 mmHg 92%
    01:00 +20°C° 0.1 mm 3 mps 740 mmHg 92%
    02:00 +20°C° 0.1 mm 3 mps 741 mmHg 92%
    03:00 +20°C° 0.1 mm 3 mps 741 mmHg 92%
    04:00 +20°C° 0.8 mm 3 mps 741 mmHg 92%
    05:00 +20°C° 0.8 mm 3 mps 741 mmHg 92%
    06:00 +20°C° 0.8 mm 3 mps 741 mmHg 92%
    07:00 +22°C° 0.3 mm 3 mps 741 mmHg 88%
    08:00 +23°C° 0.3 mm 4 mps 741 mmHg 84%
    09:00 +25°C° 0.3 mm 4 mps 741 mmHg 80%
    10:00 +26°C° 0.3 mm 4 mps 741 mmHg 75%
    11:00 +28°C° 0.3 mm 4 mps 741 mmHg 71%
    12:00 +29°C° 0.3 mm 4 mps 741 mmHg 66%
    13:00 +29°C° 0.3 mm 4 mps 741 mmHg 64%
    14:00 +30°C° 0.3 mm 3 mps 741 mmHg 62%
    15:00 +31°C° 0.3 mm 2 mps 741 mmHg 59%
    16:00 +30°C° 0.9 mm 2 mps 741 mmHg 64%
    17:00 +30°C° 0.9 mm 1 mps 741 mmHg 68%
    18:00 +29°C° 0.9 mm 1 mps 741 mmHg 72%
    19:00 +28°C° 0.2 mm 1 mps 741 mmHg 75%
    20:00 +26°C° 0.2 mm 1 mps 741 mmHg 78%
    21:00 +24°C° 0.2 mm 1 mps 741 mmHg 81%
    22:00 +24°C° 0.4 mm 1 mps 741 mmHg 83%
    23:00 +23°C° 0.4 mm 2 mps 741 mmHg 85%

    21 July, Saturday

    Time Temperature Precipitation Wind Pressure Humidity
    00:00 +23°C° 0.4 mm 2 mps 741 mmHg 87%
    01:00 +21°C° 0.4 mm 2 mps 741 mmHg 89%
    02:00 +21°C° 0.4 mm 3 mps 741 mmHg 91%
    03:00 +20°C° 0.4 mm 3 mps 741 mmHg 93%
    04:00 +20°C° 0 mm 3 mps 741 mmHg 92%
    05:00 +21°C° 0 mm 3 mps 741 mmHg 91%
    06:00 +21°C° 0 mm 3 mps 741 mmHg 90%
    07:00 +23°C° 0 mm 2 mps 741 mmHg 84%
    08:00 +25°C° 0 mm 2 mps 741 mmHg 79%
    09:00 +27°C° 0 mm 2 mps 741 mmHg 73%
    10:00 +28°C° 0.8 mm 2 mps 741 mmHg 69%
    11:00 +29°C° 0.8 mm 2 mps 741 mmHg 66%
    12:00 +30°C° 0.8 mm 3 mps 741 mmHg 62%
    13:00 +30°C° 0.1 mm 3 mps 741 mmHg 60%
    14:00 +30°C° 0.1 mm 3 mps 741 mmHg 57%
    15:00 +31°C° 0.1 mm 3 mps 741 mmHg 55%
    16:00 +31°C° 0 mm 3 mps 741 mmHg 59%
    17:00 +30°C° 0 mm 3 mps 741 mmHg 63%
    18:00 +30°C° 0 mm 3 mps 741 mmHg 67%
    19:00 +28°C° 0.8 mm 2 mps 741 mmHg 73%
    20:00 +26°C° 0.8 mm 2 mps 741 mmHg 79%
    21:00 +25°C° 0.8 mm 2 mps 741 mmHg 84%
    22:00 +24°C° 1.2 mm 2 mps 741 mmHg 87%
    23:00 +22°C° 1.2 mm 3 mps 741 mmHg 89%
    Show more